Weather History for KSSC - October, 2013

Change the Weather History Date:

Wednesday, October 23, 2013

  Actual Average Record
Temperature  
Mean Temperature 62 °F -  
Max Temperature 72 °F 71 °F 88 °F (2007)
Min Temperature 50 °F 49 °F 39 °F (1997)
Degree Days  
Heating Degree Days 4    
Growing Degree Days 12 (Base 50)    
Moisture  
Dew Point 52 °F    
Average Humidity 76    
Maximum Humidity 100    
Minimum Humidity 24    
Precipitation  
Precipitation 0.00 in - - ()
Sea Level Pressure  
Sea Level Pressure 29.80 in    
Wind  
Wind Speed 9 mph (WSW)    
Max Wind Speed 22 mph    
Max Gust Speed 29 mph    
Visibility 9 miles    
Events      
Averages and records for this station are not official NWS values.
T = Trace of Precipitation, MM = Missing Value Source: NWS Daily Summary

Daily Weather History Graph

Daily Weather History Graph

Search for Another Location

Airport or City:

Trip Planner

Search our weather history database for the weather conditions in past years. The results will help you decide how hot, cold, wet, or windy it might be!

Date:

Astronomy

Oct. 23, 2013 Rise Set
Actual Time 7:33 AM EDT 6:38 PM EDT
Civil Twilight 7:08 AM EDT 7:03 PM EDT
Nautical Twilight 6:38 AM EDT 7:32 PM EDT
Astronomical Twilight 6:09 AM EDT 8:01 PM EDT
Moon 10:14 PM EDT (10/23) 11:42 AM EDT (10/23)
Length of Visible Light 11h 55m
Length of Day
11h 04m
Waning Gibbous, 79% of the Moon is Illuminated
Oct 23
Waning Gibbous
Oct 26
Last Quarter
Nov 3
New
Nov 10
First Quarter
Nov 17
Full

Hourly Weather History & Observations

Time (EDT) Temp. Dew Point Humidity Pressure Visibility Wind Dir Wind Speed Gust Speed Precip Events Conditions
12:03 AM 60.8 °F 59.0 °F 94% 29.82 in 7.0 mi South 6.9 mph - N/A   Mostly Cloudy
12:13 AM 60.8 °F 60.8 °F 100% 29.82 in 7.0 mi SSW 6.9 mph - N/A   Mostly Cloudy
12:48 AM 60.8 °F 59.0 °F 94% 29.81 in 7.0 mi SSW 8.1 mph - N/A   Mostly Cloudy
12:58 AM 61.3 °F 59.5 °F 94% 29.81 in 8.0 mi SSW 6.9 mph - N/A   Mostly Cloudy
1:03 AM 60.8 °F 59.0 °F 94% 29.81 in 8.0 mi SSW 8.1 mph - N/A   Mostly Cloudy
1:08 AM 60.8 °F 59.0 °F 94% 29.80 in 8.0 mi SSW 9.2 mph - N/A   Mostly Cloudy
1:58 AM 61.7 °F 59.7 °F 93% 29.80 in 9.0 mi SW 9.2 mph - N/A   Overcast
2:03 AM 62.6 °F 59.0 °F 88% 29.80 in 10.0 mi SW 9.2 mph - N/A   Overcast
2:33 AM 62.6 °F 59.0 °F 88% 29.79 in 10.0 mi SW 8.1 mph - N/A   Overcast
2:43 AM 62.6 °F 59.0 °F 88% 29.79 in 10.0 mi SW 10.4 mph - N/A   Overcast
2:58 AM 61.9 °F 59.5 °F 92% 29.78 in 10.0 mi SW 8.1 mph - N/A   Overcast
3:18 AM 60.8 °F 59.0 °F 94% 29.78 in 10.0 mi WSW 11.5 mph - N/A   Overcast
3:23 AM 60.8 °F 59.0 °F 94% 29.78 in 10.0 mi WSW 10.4 mph - N/A   Overcast
3:28 AM 60.8 °F 59.0 °F 94% 29.78 in 10.0 mi WSW 10.4 mph - N/A   Overcast
3:38 AM 60.8 °F 59.0 °F 94% 29.77 in 10.0 mi SW 8.1 mph - N/A   Mostly Cloudy
3:58 AM 60.6 °F 58.5 °F 93% 29.77 in 10.0 mi SSW 8.1 mph - N/A   Scattered Clouds
4:03 AM 60.8 °F 59.0 °F 94% 29.76 in 9.0 mi SSW 8.1 mph - N/A   Mostly Cloudy
4:28 AM 59.0 °F 57.2 °F 94% 29.76 in 8.0 mi SW 6.9 mph - N/A   Mostly Cloudy
4:48 AM 60.8 °F 59.0 °F 94% 29.76 in 9.0 mi SW 4.6 mph - N/A   Mostly Cloudy
4:58 AM 61.0 °F 59.4 °F 94% 29.76 in 8.0 mi SW 5.8 mph - N/A   Overcast
5:08 AM 60.8 °F 59.0 °F 94% 29.75 in 8.0 mi SSW 6.9 mph - N/A   Overcast
5:33 AM 60.8 °F 59.0 °F 94% 29.75 in 10.0 mi SW 8.1 mph - N/A   Overcast
5:38 AM 60.8 °F 59.0 °F 94% 29.75 in 10.0 mi SW 10.4 mph - N/A   Overcast
5:53 AM 60.8 °F 59.0 °F 94% 29.74 in 9.0 mi SW 10.4 mph - N/A   Overcast
5:58 AM 60.8 °F 59.0 °F 94% 29.75 in 9.0 mi WSW 8.1 mph - N/A   Overcast
6:08 AM 60.8 °F 59.0 °F 94% 29.75 in 9.0 mi WSW 8.1 mph - N/A   Overcast
6:13 AM 60.8 °F 59.0 °F 94% 29.75 in 9.0 mi WSW 9.2 mph - N/A   Overcast
6:58 AM 61.2 °F 59.4 °F 94% 29.75 in 8.0 mi WSW 11.5 mph - N/A   Overcast
7:23 AM 60.8 °F 59.0 °F 94% 29.75 in 8.0 mi WSW 10.4 mph - N/A   Overcast
7:24 AM 60.8 °F 59.0 °F 94% 29.75 in 5.0 mi WSW 10.4 mph - N/A   Scattered Clouds
7:58 AM 59.4 °F 56.5 °F 90% 29.77 in 9.0 mi WSW 11.5 mph - N/A   Partly Cloudy
7:59 AM 59.0 °F 57.2 °F 94% 29.76 in 9.0 mi WSW 10.4 mph - N/A   Partly Cloudy
8:13 AM 59.0 °F 57.2 °F 94% 29.77 in 10.0 mi WSW 10.4 mph - N/A   Partly Cloudy
8:30 AM 59.4 °F 56.8 °F 91% 29.77 in 9.0 mi WSW 10.4 mph - N/A   Partly Cloudy
8:58 AM 59.4 °F 54.7 °F 84% 29.78 in 10.0 mi West 13.8 mph - N/A   Clear
9:58 AM 61.5 °F 52.2 °F 71% 29.81 in 10.0 mi WNW 13.8 mph - N/A   Clear
10:58 AM 64.8 °F 48.4 °F 55% 29.79 in 10.0 mi West 13.8 mph - N/A   Clear
11:58 AM 67.6 °F 45.7 °F 45% 29.79 in 10.0 mi West 13.8 mph - N/A   Clear
12:31 PM 69.8 °F 44.6 °F 40% 29.77 in 10.0 mi WSW 16.1 mph 21.9 mph N/A   Clear
12:58 PM 70.3 °F 42.6 °F 37% 29.77 in 10.0 mi West 15.0 mph 23.0 mph N/A   Clear
1:58 PM 70.7 °F 40.5 °F 33% 29.76 in 10.0 mi West 21.9 mph 28.8 mph N/A   Clear
2:23 PM 71.6 °F 39.2 °F 31% 29.76 in 10.0 mi WNW 18.4 mph 26.5 mph N/A   Clear
2:58 PM 71.1 °F 35.8 °F 27% 29.76 in 10.0 mi WSW 18.4 mph 27.6 mph N/A   Clear
3:58 PM 71.2 °F 32.0 °F 24% 29.76 in 10.0 mi WNW 13.8 mph 21.9 mph N/A   Clear
4:58 PM 70.3 °F 31.6 °F 24% 29.79 in 10.0 mi WNW 12.7 mph - N/A   Clear
5:58 PM 67.6 °F 34.9 °F 30% 29.82 in 10.0 mi NW 5.8 mph - N/A   Clear
6:58 PM 62.8 °F 35.8 °F 37% 29.86 in 10.0 mi WNW 6.9 mph - N/A   Clear
7:58 PM 58.3 °F 37.0 °F 45% 29.90 in 10.0 mi West 5.8 mph - N/A   Clear
8:58 PM 57.0 °F 38.1 °F 49% 29.94 in 10.0 mi NW 11.5 mph - N/A   Clear
9:58 PM 55.2 °F 32.7 °F 43% 29.98 in 10.0 mi North 12.7 mph - N/A   Clear
10:58 PM 52.0 °F 32.9 °F 48% 30.03 in 10.0 mi North 5.8 mph - N/A   Clear
11:58 PM 50.7 °F 32.4 °F 49% 30.04 in 10.0 mi NNW 10.4 mph - N/A   Clear